TimeCDT,TemperatureF,Dew PointF,Humidity,Sea Level PressureIn,VisibilityMPH,Wind Direction,Wind SpeedMPH,Gust SpeedMPH,PrecipitationIn,Events,Conditions,WindDirDegrees,DateUTC
12:53 AM,75.9,68.0,76,30.05,10.0,SSE,4.6,-,N/A,,Clear,150,2013-08-24 05:53:00
1:53 AM,75.9,68.0,76,30.06,10.0,SSE,4.6,-,N/A,,Clear,160,2013-08-24 06:53:00
2:53 AM,75.0,68.0,79,30.06,10.0,SSE,5.8,-,N/A,,Clear,150,2013-08-24 07:53:00
3:53 AM,75.0,68.0,79,30.07,10.0,SSE,5.8,-,N/A,,Clear,160,2013-08-24 08:53:00
4:53 AM,73.9,68.0,82,30.08,10.0,SSE,5.8,-,N/A,,Clear,150,2013-08-24 09:53:00
5:53 AM,73.0,68.0,84,30.09,10.0,SSE,5.8,-,N/A,,Clear,160,2013-08-24 10:53:00
6:53 AM,73.0,68.0,84,30.10,9.0,SSE,5.8,-,N/A,,Clear,160,2013-08-24 11:53:00
7:53 AM,73.9,69.1,85,30.12,10.0,Variable,6.9,-,N/A,,Clear,0,2013-08-24 12:53:00
8:53 AM,77.0,69.1,76,30.13,10.0,South,6.9,-,N/A,,Clear,170,2013-08-24 13:53:00
9:53 AM,80.1,70.0,71,30.14,10.0,South,6.9,-,N/A,,Clear,190,2013-08-24 14:53:00
10:53 AM,84.0,71.1,65,30.14,10.0,South,8.1,-,N/A,,Clear,190,2013-08-24 15:53:00
11:53 AM,86.0,72.0,63,30.14,10.0,South,9.2,-,N/A,,Clear,180,2013-08-24 16:53:00
12:53 PM,88.0,70.0,55,30.13,10.0,SSW,10.4,-,N/A,,Partly Cloudy,200,2013-08-24 17:53:00
1:53 PM,88.0,70.0,55,30.12,10.0,Variable,6.9,-,N/A,,Mostly Cloudy,0,2013-08-24 18:53:00
2:53 PM,89.1,66.9,48,30.12,10.0,South,10.4,-,N/A,,Clear,180,2013-08-24 19:53:00
3:53 PM,90.0,68.0,48,30.10,10.0,South,8.1,-,N/A,,Partly Cloudy,180,2013-08-24 20:53:00
4:53 PM,89.1,68.0,50,30.09,10.0,South,10.4,-,N/A,,Partly Cloudy,170,2013-08-24 21:53:00
5:53 PM,88.0,68.0,51,30.09,10.0,SSW,6.9,-,N/A,,Clear,200,2013-08-24 22:53:00
6:53 PM,86.0,68.0,55,30.07,10.0,SSE,5.8,-,N/A,,Clear,160,2013-08-24 23:53:00
7:53 PM,84.0,64.9,53,30.08,10.0,South,5.8,-,N/A,,Clear,170,2013-08-25 00:53:00
8:53 PM,81.0,66.0,60,30.10,10.0,SSE,3.5,-,N/A,,Clear,160,2013-08-25 01:53:00
9:53 PM,80.1,68.0,67,30.12,10.0,SSE,4.6,-,N/A,,Clear,150,2013-08-25 02:53:00
10:53 PM,79.0,68.0,69,30.12,10.0,SSE,5.8,-,N/A,,Clear,150,2013-08-25 03:53:00
11:53 PM,78.1,66.0,66,30.12,10.0,SSE,5.8,-,N/A,,Clear,160,2013-08-25 04:53:00